Location: Pine Mountain Observatory
(43.7910°N, 120.9377°W)
Time: 13:17:06
(UTC-07:00)

Vanguard 2 Rocket - All Passes

Search period start: 22 May 2019 00:00
Search period end: 01 June 2019 00:00
Orbit: 555 x 3325 km, 32.9° (Epoch: 22 May)

Date Brightness Start Highest point End Pass type
(mag) Time Alt. Az. Time Alt. Az. Time Alt. Az.
22 May - 05:27:24 10° SSW 05:41:48 28° SSE 05:52:26 10° E daylight
22 May - 07:41:58 10° SW 07:57:07 44° S 08:06:26 10° ESE daylight
22 May - 09:59:29 10° WSW 10:11:23 43° S 10:18:22 10° ESE daylight
22 May - 12:17:33 10° WSW 12:23:52 21° SSW 12:28:19 10° SSE daylight
23 May - 04:27:40 10° S 04:40:56 23° SSE 04:51:40 10° ESE visible
23 May - 06:40:20 10° SW 06:56:30 41° SSE 07:07:06 10° E daylight
23 May - 08:57:22 10° WSW 09:11:27 48° S 09:19:41 10° ESE daylight
23 May - 11:15:30 10° W 11:24:45 32° SSW 11:30:34 10° SE daylight
24 May - 03:29:17 10° S 03:40:04 17° SE 03:49:35 10° ESE visible
24 May - 05:39:09 10° SW 05:55:37 37° SSE 06:07:22 10° E daylight
24 May - 07:55:12 10° WSW 08:11:07 49° S 08:20:44 10° ESE daylight
24 May - 10:13:22 10° W 10:25:17 41° SSW 10:32:21 10° SE daylight
24 May - 12:32:32 10° WSW 12:37:20 16° SW 12:41:03 10° S daylight
25 May - 02:34:12 10° SSE 02:39:18 11° SE 02:44:12 10° ESE visible
25 May - 04:38:38 10° SSW 04:54:36 32° SSE 05:07:05 10° E visible
25 May - 06:53:14 10° SW 07:10:26 48° S 07:21:29 10° E daylight
25 May - 09:11:05 10° WSW 09:25:24 48° S 09:33:47 10° ESE daylight
25 May - 11:29:50 10° W 11:38:21 26° SW 11:44:00 10° SSE daylight
26 May - 03:39:01 10° S 03:53:32 26° SE 04:06:01 10° E visible
26 May - 05:51:38 10° SW 06:09:26 45° SSE 06:21:53 10° E daylight
26 May - 08:08:44 10° WSW 08:25:05 52° S 08:34:55 10° ESE daylight
26 May - 10:27:25 10° W 10:39:01 36° SSW 10:46:06 10° SE daylight
27 May - 02:40:43 10° S 02:52:36 19° SE 03:03:41 10° ESE visible
27 May - 04:50:36 10° SW 05:08:15 40° SSE 05:21:50 10° E visible
27 May - 07:06:31 10° WSW 07:24:22 53° S 07:35:44 10° ESE daylight
27 May - 09:24:58 10° W 09:39:13 45° SSW 09:47:44 10° SE daylight
27 May - 11:44:36 10° W 11:51:44 19° SW 11:56:52 10° S daylight
28 May - 01:45:09 10° SSE 01:51:53 13° SE 01:58:33 10° ESE visible
28 May - 03:50:19 10° SSW 04:07:00 34° SSE 04:21:12 10° E visible
28 May - 06:04:38 10° WSW 06:23:16 51° S 06:36:12 10° E daylight
28 May - 08:22:28 10° WSW 08:38:58 52° S 08:48:58 10° ESE daylight
28 May - 10:41:40 10° W 10:52:31 30° SW 10:59:31 10° SSE daylight
29 May - 02:50:57 10° SSW 03:05:52 27° SE 03:19:45 10° E visible
29 May - 05:03:15 10° SW 05:21:55 48° SSE 05:36:16 10° E daylight
29 May - 07:20:05 10° WSW 07:38:14 55° S 07:49:52 10° ESE daylight
29 May - 09:38:58 10° W 09:52:52 40° SSW 10:01:26 10° SE daylight
29 May - 12:00:27 10° WSW 12:04:52 13° SW 12:08:31 10° SSW daylight
30 May - 01:52:51 10° S 02:04:57 20° SE 02:17:03 10° E visible
30 May - 04:02:30 10° SW 04:20:30 42° SSE 04:35:50 10° E visible
30 May - 06:17:59 10° WSW 06:37:06 56° S 06:50:23 10° ESE daylight
30 May - 08:36:20 10° W 08:52:44 48° SSW 09:02:51 10° SE daylight
30 May - 10:56:17 10° W 11:05:48 23° SW 11:12:25 10° S daylight
31 May - 00:57:20 10° SSE 01:04:23 13° SE 01:11:38 10° ESE visible
31 May - 03:02:32 10° SSW 03:19:08 36° SSE 03:34:47 10° E visible
31 May - 05:16:21 10° WSW 05:35:39 54° SSE 05:50:30 10° E daylight
31 May - 07:33:50 10° W 07:52:03 54° S 08:03:51 10° ESE daylight
31 May - 09:53:09 10° W 10:06:18 33° SW 10:14:48 10° SSE daylight
